FW8870 Weather Reports


time (UTC)temp
C
wind
direction
speed
KPH
gust
KPH
rain 1hr
cm
rain 24hr
cm
rain mn
cm
humidity
%
barometer
mb
20260504190236 24 343 0.0 1.6 0.00 0.00 0.00 48 1011.6
20260504185732 25 341 0.0 0.0 0.00 0.00 0.00 50 1011.6
20260504185229 24 328 0.0 0.0 0.00 0.00 0.00 57 1011.6
20260504184725 24 29 0.0 0.0 0.00 0.00 0.00 56 1011.8
20260504184221 24 327 0.0 0.0 0.00 0.00 0.00 55 1011.7
20260504183717 23 349 1.6 4.8 0.00 0.00 0.00 57 1011.8
20260504183214 23 4 3.2 4.8 0.00 0.00 0.00 50 1011.8
20260504182713 23 79 0.0 0.0 0.00 0.00 0.00 53 1011.9
20260504182209 23 317 1.6 3.2 0.00 0.00 0.00 52 1011.8
20260504181707 22 330 0.0 0.0 0.00 0.00 0.00 57 1012.0
20260504181204 23 349 0.0 0.0 0.00 0.00 0.00 56 1012.0
20260504180703 23 14 4.8 8.0 0.00 0.00 0.00 54 1012.0
20260504180201 22 321 0.0 0.0 0.00 0.00 0.00 56 1011.9
20260504175658 22 118 0.0 0.0 0.00 0.00 0.00 56 1012.3
20260504175155 22 319 0.0 0.0 0.00 0.00 0.00 58 1012.0
20260504174653 22 273 0.0 0.0 0.00 0.00 0.00 62 1012.1
20260504174150 22 325 0.0 0.0 0.00 0.00 0.00 58 1012.2
20260504173647 22 6 1.6 1.6 0.00 0.00 0.00 55 1012.3
20260504173144 22 328 0.0 0.0 0.00 0.00 0.00 53 1012.0
20260504172641 21 328 0.0 0.0 0.00 0.00 0.00 57 1012.4
20260504172137 21 333 0.0 0.0 0.00 0.00 0.00 60 1012.3
20260504171633 21 339 0.0 0.0 0.00 0.00 0.00 60 1012.3
20260504171131 21 323 0.0 0.0 0.00 0.00 0.00 63 1012.2
20260504170627 21 343 0.0 0.0 0.00 0.00 0.00 64 1012.3
20260504170125 21 329 0.0 0.0 0.00 0.00 0.00 59 1012.5
20260504151010 13 347 0.0 0.0 0.00 0.00 0.00 84 1013.1
20260504150508 12 344 0.0 0.0 0.00 0.00 0.00 87 1012.7
20260504140933 10 334 0.0 0.0 0.00 0.00 0.00 94 1012.5
20260504140430 10 312 0.0 0.0 0.00 0.00 0.00 94 1012.4
20260504130355 9 324 0.0 0.0 0.00 0.00 0.00 94 1011.9
20260504120318 10 345 0.0 0.0 0.00 0.00 0.00 94 1011.8
20260504110242 10 328 0.0 0.0 0.00 0.00 0.00 92 1012.0
20260504100205 12 337 0.0 0.0 0.00 0.00 0.00 80 1011.7
20260504090128 11 336 0.0 0.0 0.00 0.00 0.00 87 1011.6
20260504081558 12 342 0.0 0.0 0.00 0.00 0.00 82 1011.5
20260504081054 13 327 0.0 0.0 0.00 0.00 0.00 81 1011.6
20260504080551 13 327 0.0 0.0 0.00 0.00 0.00 80 1011.4
20260504050404 13 317 0.0 0.0 0.00 0.00 0.00 87 1011.3
20260504045900 13 317 0.0 0.0 0.00 0.00 0.00 88 1011.4
20260504045356 13 316 0.0 0.0 0.00 0.00 0.00 88 1011.4
20260504044853 13 316 0.0 0.0 0.00 0.00 0.00 90 1011.3
20260504044350 13 316 0.0 0.0 0.00 0.00 0.00 89 1011.4
20260504043848 13 305 0.0 0.0 0.00 0.00 0.00 88 1011.3
20260504043344 13 322 0.0 0.0 0.00 0.00 0.00 89 1011.6
20260504042842 14 322 0.0 0.0 0.00 0.00 0.00 89 1011.4
20260504042338 15 322 0.0 0.0 0.00 0.00 0.00 89 1011.3
20260504041834 15 322 0.0 0.0 0.00 0.00 0.00 88 1011.4
20260504041331 15 322 0.0 0.0 0.00 0.00 0.00 89 1011.5
20260504040827 15 322 0.0 0.0 0.00 0.00 0.00 88 1011.2
20260504040325 15 322 0.0 0.0 0.00 0.00 0.00 86 1011.3
20260504035820 15 321 0.0 0.0 0.00 0.00 0.00 84 1011.1
20260504035318 16 322 0.0 0.0 0.00 0.00 0.00 81 1011.2
20260504034815 16 322 0.0 0.0 0.00 0.00 0.00 81 1011.2
20260504034313 16 322 0.0 0.0 0.00 0.00 0.00 80 1011.3
20260504033809 17 322 0.0 0.0 0.00 0.00 0.00 77 1011.2
20260504033307 17 322 0.0 0.0 0.00 0.00 0.00 76 1011.0
20260504032803 18 322 0.0 0.0 0.00 0.00 0.00 73 1011.0
20260504032301 18 322 0.0 0.0 0.00 0.00 0.00 71 1010.8
20260504031757 19 321 0.0 0.0 0.00 0.00 0.00 68 1010.7
20260504031255 20 321 0.0 0.0 0.00 0.00 0.00 66 1010.8
20260504030751 20 321 0.0 0.0 0.00 0.00 0.00 65 1011.0
20260504030248 20 317 0.0 0.0 0.00 0.00 0.00 65 1010.7
20260504025744 20 324 0.0 0.0 0.00 0.00 0.00 66 1010.7
20260504025241 20 325 0.0 0.0 0.00 0.00 0.00 65 1011.1
20260504024738 21 318 0.0 0.0 0.00 0.00 0.00 63 1010.7
20260504024235 21 312 0.0 0.0 0.00 0.00 0.00 63 1011.0
20260504023732 21 332 0.0 0.0 0.00 0.00 0.00 62 1010.6
20260504023228 21 314 0.0 0.0 0.00 0.00 0.00 62 1010.7
20260504022724 21 319 0.0 0.0 0.00 0.00 0.00 63 1010.7
20260504022220 21 330 0.0 0.0 0.00 0.00 0.00 59 1011.0
20260504021718 22 333 0.0 0.0 0.00 0.00 0.00 60 1011.0
20260504021215 22 333 0.0 0.0 0.00 0.00 0.00 60 1011.2
20260504020712 22 328 0.0 0.0 0.00 0.00 0.00 60 1011.0
20260504020208 22 327 0.0 0.0 0.00 0.00 0.00 56 1011.0
20260504015704 22 316 0.0 0.0 0.00 0.00 0.00 53 1011.1
20260504015201 22 318 0.0 0.0 0.00 0.00 0.00 55 1011.2
20260504014656 22 304 0.0 0.0 0.00 0.00 0.00 56 1011.1
20260504014154 23 315 0.0 0.0 0.00 0.00 0.00 59 1011.3
20260504013651 24 316 0.0 0.0 0.00 0.00 0.00 53 1011.2
20260504013148 25 305 0.0 0.0 0.00 0.00 0.00 53 1011.0
20260504012645 25 283 0.0 0.0 0.00 0.00 0.00 53 1011.2
20260504012143 25 345 0.0 0.0 0.00 0.00 0.00 45 1011.4
20260504011639 25 293 0.0 0.0 0.00 0.00 0.00 53 1011.2
20260504011136 25 302 0.0 0.0 0.00 0.00 0.00 51 1011.2
20260504010632 26 301 0.0 0.0 0.00 0.00 0.00 53 1011.6
20260504010128 25 320 0.0 0.0 0.00 0.00 0.00 46 1011.5
20260504005625 25 319 0.0 0.0 0.00 0.00 0.00 48 1011.5
20260504005122 25 314 0.0 0.0 0.00 0.00 0.00 50 1011.5
20260504004620 25 4 0.0 0.0 0.00 0.00 0.00 53 1011.7
20260504004117 25 334 0.0 0.0 0.00 0.00 0.00 46 1011.7
20260504003613 26 311 0.0 0.0 0.00 0.00 0.00 54 1011.6
20260504003110 26 307 0.0 0.0 0.00 0.00 0.00 50 1011.6
20260504002607 27 314 0.0 0.0 0.00 0.00 0.00 47 1011.6
20260504002104 27 338 0.0 0.0 0.00 0.00 0.00 44 1011.8
20260504001602 27 252 0.0 0.0 0.00 0.00 0.00 44 1011.9
20260504001057 27 290 0.0 0.0 0.00 0.00 0.00 53 1011.8
20260504000555 27 305 0.0 0.0 0.00 0.00 0.00 49 1012.0
20260504000052 27 314 0.0 0.0 0.00 0.00 0.00 46 1012.1
20260503235550 27 290 0.0 0.0 0.00 0.00 0.00 48 1011.9
20260503235047 28 340 0.0 1.6 0.00 0.00 0.00 43 1012.0
20260503234545 27 326 0.0 0.0 0.00 0.00 0.00 45 1012.0
20260503234043 27 344 0.0 0.0 0.00 0.00 0.00 45 1011.9
20260503233539 27 237 0.0 0.0 0.00 0.00 0.00 48 1012.0
20260503233035 27 316 0.0 0.0 0.00 0.00 0.00 48 1012.1
20260503232532 27 315 0.0 0.0 0.00 0.00 0.00 49 1012.2
20260503232030 27 347 0.0 0.0 0.00 0.00 0.00 47 1011.9
20260503231527 27 285 0.0 0.0 0.00 0.00 0.00 52 1012.4
20260503231024 27 332 0.0 0.0 0.00 0.00 0.00 48 1012.3
20260503230520 27 338 0.0 0.0 0.00 0.00 0.00 50 1012.4
20260503230018 27 309 0.0 0.0 0.00 0.00 0.00 48 1012.6
20260503225515 27 297 0.0 0.0 0.00 0.00 0.00 48 1012.7
20260503225010 27 350 0.0 0.0 0.00 0.00 0.00 51 1012.7
20260503224508 27 302 1.6 4.8 0.00 0.00 0.00 47 1012.5
20260503224005 27 14 0.0 0.0 0.00 0.00 0.00 48 1012.8
20260503223503 27 315 0.0 0.0 0.00 0.00 0.00 55 1012.6
20260503222958 27 313 0.0 0.0 0.00 0.00 0.00 55 1012.7
20260503222457 27 298 0.0 1.6 0.00 0.00 0.00 50 1012.8
20260503221954 27 66 0.0 1.6 0.00 0.00 0.00 49 1013.0
20260503221453 27 297 0.0 0.0 0.00 0.00 0.00 47 1012.9
20260503220949 27 21 0.0 1.6 0.00 0.00 0.00 47 1012.9
20260503220445 27 262 0.0 0.0 0.00 0.00 0.00 47 1013.0
20260503215942 27 348 0.0 0.0 0.00 0.00 0.00 55 1013.2
20260503215439 27 7 0.0 0.0 0.00 0.00 0.00 46 1013.2
20260503214937 27 246 0.0 0.0 0.00 0.00 0.00 51 1013.3
20260503214435 27 313 0.0 0.0 0.00 0.00 0.00 47 1013.0
20260503213932 27 10 0.0 3.2 0.00 0.00 0.00 44 1013.4
20260503213430 27 323 0.0 0.0 0.00 0.00 0.00 40 1013.1
20260503212926 27 325 0.0 0.0 0.00 0.00 0.00 48 1013.5
20260503212424 27 290 0.0 0.0 0.00 0.00 0.00 41 1013.5
20260503211921 27 266 1.6 1.6 0.00 0.00 0.00 48 1013.3
20260503211418 26 336 1.6 3.2 0.00 0.00 0.00 43 1013.7
20260503210913 26 342 0.0 0.0 0.00 0.00 0.00 42 1013.6
20260503210410 26 330 0.0 0.0 0.00 0.00 0.00 48 1013.6
20260503205905 27 309 0.0 0.0 0.00 0.00 0.00 42 1013.6
20260503205402 27 312 0.0 0.0 0.00 0.00 0.00 45 1013.8
20260503204858 26 347 0.0 0.0 0.00 0.00 0.00 50 1014.2
20260503204356 27 81 0.0 1.6 0.00 0.00 0.00 44 1013.9
20260503203853 27 329 0.0 0.0 0.00 0.00 0.00 45 1014.0
20260503203350 26 87 1.6 3.2 0.00 0.00 0.00 43 1014.2
20260503202847 26 9 0.0 0.0 0.00 0.00 0.00 49 1014.3
20260503202345 27 333 0.0 1.6 0.00 0.00 0.00 43 1014.2
20260503201843 27 348 0.0 0.0 0.00 0.00 0.00 45 1014.3
20260503201340 26 190 1.6 3.2 0.00 0.00 0.00 43 1014.6
20260503200838 26 56 0.0 0.0 0.00 0.00 0.00 45 1014.6
20260503200333 26 175 0.0 0.0 0.00 0.00 0.00 48 1014.8
20260503195831 26 262 0.0 0.0 0.00 0.00 0.00 48 1014.6
20260503195327 26 325 0.0 0.0 0.00 0.00 0.00 47 1014.7
20260503194824 26 18 0.0 0.0 0.00 0.00 0.00 45 1014.7
20260503194320 26 135 0.0 0.0 0.00 0.00 0.00 44 1014.8
20260503193816 26 157 0.0 0.0 0.00 0.00 0.00 53 1014.8
20260503193313 26 342 0.0 0.0 0.00 0.00 0.00 48 1015.0
20260503192809 25 104 1.6 3.2 0.00 0.00 0.00 44 1015.0
20260503192305 25 205 0.0 0.0 0.00 0.00 0.00 49 1015.0
20260503191801 25 139 1.6 3.2 0.00 0.00 0.00 50 1015.1
20260503191258 25 328 0.0 1.6 0.00 0.00 0.00 48 1015.0
20260503190754 25 335 0.0 0.0 0.00 0.00 0.00 51 1015.1